This is the latest recevied weather packets stored in our database for station/object AI5BL. If no packets are shown the sender has not sent any weather packets the latest 10 day(s).
| Time | Temp. | Humidity | Pressure | Rain* | Wind** | Luminosity | Snow |
|---|---|---|---|---|---|---|---|
| 1777802257 | 6.11° C | 99% | 1022.5 hPa | 0 mm | - | 0 W/m² | - |
| 1777801652 | 6.67° C | 99% | 1022.5 hPa | 0 mm | - | 0 W/m² | - |
| 1777801046 | 6.11° C | 99% | 1022.3 hPa | 0 mm | - | 0 W/m² | - |
| 1777800743 | 6.11° C | 99% | 1022.4 hPa | 0 mm | - | 0 W/m² | - |
| 1777800438 | 6.11° C | 99% | 1022.3 hPa | 0 mm | - | 0 W/m² | - |
| 1777800136 | 6.67° C | 99% | 1022.2 hPa | 0 mm | - | 0 W/m² | - |
| 1777799836 | 6.67° C | 99% | 1022.2 hPa | 0 mm | - | 0 W/m² | - |
| 1777799534 | 7.22° C | 99% | 1022.4 hPa | 0 mm | - | 0 W/m² | - |
| 1777799229 | 6.67° C | 99% | 1022.4 hPa | 0 mm | - | 0 W/m² | - |
| 1777798926 | 6.67° C | 99% | 1022.2 hPa | 0 mm | - | 0 W/m² | - |
| 1777798621 | 6.67° C | 99% | 1022.1 hPa | 0 mm | - | 0 W/m² | - |
| 1777798319 | 7.22° C | 99% | 1022.1 hPa | 0 mm | - | 0 W/m² | - |
| 1777798015 | 7.22° C | 99% | 1021.9 hPa | 0 mm | - | 0 W/m² | - |
| 1777797410 | 6.67° C | 99% | 1021.9 hPa | 0 mm | - | 0 W/m² | - |
| 1777797108 | 6.67° C | 99% | 1022 hPa | 0 mm | - | 0 W/m² | - |
| 1777796804 | 6.67° C | 99% | 1021.8 hPa | 0 mm | - | 0 W/m² | - |
| 1777796502 | 6.67° C | 99% | 1022.1 hPa | 0 mm | - | 0 W/m² | - |
| 1777796202 | 6.67° C | 99% | 1021.9 hPa | 0 mm | - | 0 W/m² | - |
| 1777795898 | 6.67° C | 99% | 1021.7 hPa | 0 mm | - | 0 W/m² | - |
| 1777795594 | 6.67° C | 99% | 1021.7 hPa | 0 mm | - | 0 W/m² | - |
| 1777795291 | 7.22° C | 99% | 1021.5 hPa | 0 mm | - | 0 W/m² | - |
| 1777794988 | 7.22° C | 99% | 1021.6 hPa | 0 mm | - | 0 W/m² | - |
| 1777794685 | 7.22° C | 99% | 1021.8 hPa | 0 mm | - | 0 W/m² | - |
| 1777794380 | 7.22° C | 99% | 1021.6 hPa | 0 mm | - | 0 W/m² | - |
| 1777794076 | 7.78° C | 99% | 1021.7 hPa | 0 mm | - | 0 W/m² | - |
* Rain latest hour (hover to see other rain measurements)
** Current wind speed in m/s (hover to see current wind gust speed)